Simultaneous Nadir Overpasses (SNOs) Predictions

Prediction of SNOs between LANDSAT-8 and METOP-B Satellite Orbit:

Table of predicted SNOs for the next 14.0 days since TLE Epoch: 3/14/2020
Index Date (LANDSAT-8) Time (LANDSAT-8) Lat,Lon (LANDSAT-8) SZA (LANDSAT-8 ) Date (METOP-B) Time (METOP-B) Lat,Lon (METOP-B) SZA (METOP-B ) Distance(km) Time Diff (sec)
1 03/16/2020 07:12:45 81.10, 110.91 84.37 03/16/2020 07:12:40 81.09, 110.83 84.36 1.38 5
2 03/16/2020 08:02:11 -81.12, -81.16 95.60 03/16/2020 08:03:19 -81.12, -81.10 95.57 1.04 68
3 03/19/2020 01:57:33 -81.09, 9.58 96.73 03/19/2020 01:56:23 -81.09, 9.73 96.74 2.65 70
4 03/19/2020 02:46:59 81.09, 177.26 83.27 03/19/2020 02:47:03 81.10, 177.29 83.28 0.79 4
5 03/21/2020 21:31:47 -81.08, 75.94 97.83 03/21/2020 21:30:47 -81.08, 75.82 97.87 2.21 60
6 03/21/2020 22:21:12 81.11,-116.05 82.22 03/21/2020 22:21:25 81.11,-115.87 82.24 2.98 13
7 03/24/2020 17:06:00 -81.07, 142.27 98.93 03/24/2020 17:05:09 -81.08, 142.27 98.95 0.24 51
8 03/24/2020 17:55:25 81.10, -49.74 81.11 03/24/2020 17:55:48 81.10, -49.80 81.12 0.96 23
9 03/27/2020 12:40:13 -81.09,-151.07 99.97 03/27/2020 12:39:31 -81.09,-150.92 99.97 2.66 42




NCC Satellite Simultaneous Nadir Overpasses (SNOs) Prediction Service
